Time,TemperatureF,DewpointF,PressureIn,WindDirection,WindDirectionDegrees,WindSpeedMPH,WindSpeedGustMPH,Humidity,HourlyPrecipIn,Conditions,Clouds,dailyrainin,SoftwareType,DateUTC
2013-02-04 00:01:00,47.6,27.8,29.82,South,191,3.0,6.0,46,0.00,,,0.00,Wunderground v.1.15,2013-02-04 06:01:00,
2013-02-04 00:07:00,47.7,27.9,29.82,WSW,251,1.0,7.0,46,0.00,,,0.00,Wunderground v.1.15,2013-02-04 06:07:00,
2013-02-04 00:13:00,47.8,27.5,29.82,South,189,8.0,8.0,45,0.00,,,0.00,Wunderground v.1.15,2013-02-04 06:13:00,
2013-02-04 00:19:00,48.0,27.6,29.81,East,100,3.0,10.0,45,0.00,,,0.00,Wunderground v.1.15,2013-02-04 06:19:00,
2013-02-04 00:24:00,48.2,27.8,29.81,West,281,2.0,11.0,45,0.00,,,0.00,Wunderground v.1.15,2013-02-04 06:24:00,
2013-02-04 00:30:00,48.2,27.8,29.81,SSW,209,10.0,10.0,45,0.00,,,0.00,Wunderground v.1.15,2013-02-04 06:30:00,
2013-02-04 00:37:00,48.1,27.7,29.81,WSW,240,5.0,10.0,45,0.00,,,0.00,Wunderground v.1.15,2013-02-04 06:37:00,
2013-02-04 00:42:00,48.2,27.8,29.80,SE,146,3.0,4.0,45,0.00,,,0.00,Wunderground v.1.15,2013-02-04 06:42:00,
2013-02-04 00:48:00,48.2,27.8,29.80,WSW,248,3.0,4.0,45,0.00,,,0.00,Wunderground v.1.15,2013-02-04 06:48:00,
2013-02-04 00:54:00,48.1,28.3,29.80,SE,124,2.0,7.0,46,0.00,,,0.00,Wunderground v.1.15,2013-02-04 06:54:00,
2013-02-04 01:00:00,48.2,28.4,29.80,WSW,248,5.0,5.0,46,0.00,,,0.00,Wunderground v.1.15,2013-02-04 07:00:00,
2013-02-04 01:05:00,48.2,28.4,29.80,SW,234,2.0,5.0,46,0.00,,,0.00,Wunderground v.1.15,2013-02-04 07:05:00,
2013-02-04 01:12:00,48.2,28.4,29.80,WSW,246,7.0,7.0,46,0.00,,,0.00,Wunderground v.1.15,2013-02-04 07:12:00,
2013-02-04 01:18:00,48.2,28.4,29.79,South,187,3.0,7.0,46,0.00,,,0.00,Wunderground v.1.15,2013-02-04 07:18:00,
2013-02-04 01:23:00,48.2,28.4,29.79,West,273,1.0,3.0,46,0.00,,,0.00,Wunderground v.1.15,2013-02-04 07:23:00,
2013-02-04 01:29:00,48.2,28.4,29.79,West,259,2.0,2.0,46,0.00,,,0.00,Wunderground v.1.15,2013-02-04 07:29:00,
2013-02-04 01:35:00,48.1,28.3,29.79,WSW,258,2.0,4.0,46,0.00,,,0.00,Wunderground v.1.15,2013-02-04 07:35:00,
2013-02-04 01:41:00,48.0,28.2,29.79,ESE,115,1.0,2.0,46,0.00,,,0.00,Wunderground v.1.15,2013-02-04 07:41:00,
2013-02-04 01:46:00,47.9,28.1,29.79,West,276,2.0,4.0,46,0.00,,,0.00,Wunderground v.1.15,2013-02-04 07:46:00,
2013-02-04 01:52:00,48.0,28.2,29.79,West,266,1.0,8.0,46,0.00,,,0.00,Wunderground v.1.15,2013-02-04 07:52:00,
2013-02-04 01:58:00,47.9,28.6,29.79,WSW,244,2.0,8.0,47,0.00,,,0.00,Wunderground v.1.15,2013-02-04 07:58:00,
2013-02-04 02:03:00,47.8,28.5,29.79,West,281,2.0,11.0,47,0.00,,,0.00,Wunderground v.1.15,2013-02-04 08:03:00,
2013-02-04 02:08:00,47.8,28.5,29.79,West,263,2.0,11.0,47,0.00,,,0.00,Wunderground v.1.15,2013-02-04 08:08:00,
2013-02-04 02:13:00,47.8,28.5,29.80,WSW,254,5.0,5.0,47,0.00,,,0.00,Wunderground v.1.15,2013-02-04 08:13:00,
2013-02-04 02:18:00,47.8,28.5,29.80,NW,311,0.0,6.0,47,0.00,,,0.00,Wunderground v.1.15,2013-02-04 08:18:00,
2013-02-04 02:23:00,47.7,28.4,29.80,NW,307,1.0,3.0,47,0.00,,,0.00,Wunderground v.1.15,2013-02-04 08:23:00,
2013-02-04 02:28:00,47.7,28.9,29.80,West,261,1.0,3.0,48,0.00,,,0.00,Wunderground v.1.15,2013-02-04 08:28:00,
2013-02-04 02:33:00,47.7,28.9,29.80,WSW,257,0.0,7.0,48,0.00,,,0.00,Wunderground v.1.15,2013-02-04 08:33:00,
2013-02-04 02:38:00,47.6,28.9,29.80,WSW,257,1.0,7.0,48,0.00,,,0.00,Wunderground v.1.15,2013-02-04 08:38:00,
2013-02-04 02:43:00,47.4,29.2,29.81,WSW,257,1.0,3.0,49,0.00,,,0.00,Wunderground v.1.15,2013-02-04 08:43:00,
2013-02-04 02:48:00,47.2,29.0,29.81,WSW,248,4.0,5.0,49,0.00,,,0.00,Wunderground v.1.15,2013-02-04 08:48:00,
2013-02-04 02:53:00,47.1,28.9,29.81,West,273,1.0,2.0,49,0.00,,,0.00,Wunderground v.1.15,2013-02-04 08:53:00,
2013-02-04 02:58:00,46.9,29.2,29.81,West,273,1.0,2.0,50,0.00,,,0.00,Wunderground v.1.15,2013-02-04 08:58:00,
2013-02-04 03:03:00,46.6,28.9,29.81,West,265,0.0,3.0,50,0.00,,,0.00,Wunderground v.1.15,2013-02-04 09:03:00,
2013-02-04 03:08:00,46.4,29.2,29.81,WSW,256,0.0,3.0,51,0.00,,,0.00,Wunderground v.1.15,2013-02-04 09:08:00,
2013-02-04 03:13:00,46.1,29.0,29.81,WSW,256,0.0,2.0,51,0.00,,,0.00,Wunderground v.1.15,2013-02-04 09:13:00,
2013-02-04 03:18:00,45.9,29.2,29.80,WSW,256,1.0,2.0,52,0.00,,,0.00,Wunderground v.1.15,2013-02-04 09:18:00,
2013-02-04 03:24:00,45.5,28.9,29.80,WSW,256,0.0,1.0,52,0.00,,,0.00,Wunderground v.1.15,2013-02-04 09:24:00,
2013-02-04 03:29:00,45.3,29.2,29.80,WSW,256,0.0,1.0,53,0.00,,,0.00,Wunderground v.1.15,2013-02-04 09:29:00,
2013-02-04 03:34:00,45.0,28.9,29.80,WSW,256,0.0,0.0,53,0.00,,,0.00,Wunderground v.1.15,2013-02-04 09:34:00,
2013-02-04 03:39:00,44.8,28.7,29.81,WSW,256,0.0,1.0,53,0.00,,,0.00,Wunderground v.1.15,2013-02-04 09:39:00,
2013-02-04 03:44:00,44.4,28.8,29.80,WSW,256,0.0,1.0,54,0.00,,,0.00,Wunderground v.1.15,2013-02-04 09:44:00,
2013-02-04 03:49:00,44.1,28.9,29.80,WSW,256,0.0,1.0,55,0.00,,,0.00,Wunderground v.1.15,2013-02-04 09:49:00,
2013-02-04 03:54:00,43.9,29.2,29.80,WSW,256,0.0,1.0,56,0.00,,,0.00,Wunderground v.1.15,2013-02-04 09:54:00,
2013-02-04 03:59:00,43.6,28.9,29.79,WSW,256,1.0,1.0,56,0.00,,,0.00,Wunderground v.1.15,2013-02-04 09:59:00,
2013-02-04 04:04:00,43.4,28.7,29.79,WSW,256,0.0,1.0,56,0.00,,,0.00,Wunderground v.1.15,2013-02-04 10:04:00,
2013-02-04 04:09:00,43.3,29.1,29.80,WSW,256,0.0,1.0,57,0.00,,,0.00,Wunderground v.1.15,2013-02-04 10:09:00,
2013-02-04 04:14:00,43.3,29.1,29.80,WSW,256,0.0,0.0,57,0.00,,,0.00,Wunderground v.1.15,2013-02-04 10:14:00,
2013-02-04 04:19:00,43.1,28.9,29.80,WSW,256,0.0,0.0,57,0.00,,,0.00,Wunderground v.1.15,2013-02-04 10:19:00,
2013-02-04 04:24:00,42.8,29.0,29.80,WSW,256,0.0,0.0,58,0.00,,,0.00,Wunderground v.1.15,2013-02-04 10:24:00,
2013-02-04 04:29:00,42.6,28.8,29.80,WSW,256,0.0,0.0,58,0.00,,,0.00,Wunderground v.1.15,2013-02-04 10:29:00,
2013-02-04 04:34:00,42.5,28.8,29.80,WSW,256,0.0,1.0,58,0.00,,,0.00,Wunderground v.1.15,2013-02-04 10:34:00,
2013-02-04 04:39:00,42.3,29.0,29.80,WSW,256,0.0,1.0,59,0.00,,,0.00,Wunderground v.1.15,2013-02-04 10:39:00,
2013-02-04 04:44:00,42.1,28.8,29.80,WSW,256,0.0,1.0,59,0.00,,,0.00,Wunderground v.1.15,2013-02-04 10:44:00,
2013-02-04 04:49:00,41.8,28.9,29.80,WSW,256,0.0,1.0,60,0.00,,,0.00,Wunderground v.1.15,2013-02-04 10:49:00,
2013-02-04 04:54:00,41.5,28.6,29.80,WSW,256,0.0,0.0,60,0.00,,,0.00,Wunderground v.1.15,2013-02-04 10:54:00,
2013-02-04 04:59:00,41.3,28.9,29.80,WSW,256,0.0,1.0,61,0.00,,,0.00,Wunderground v.1.15,2013-02-04 10:59:00,
2013-02-04 05:04:00,41.1,28.7,29.81,WSW,256,0.0,1.0,61,0.00,,,0.00,Wunderground v.1.15,2013-02-04 11:04:00,
2013-02-04 05:09:00,40.8,28.8,29.81,WSW,256,0.0,1.0,62,0.00,,,0.00,Wunderground v.1.15,2013-02-04 11:09:00,
2013-02-04 05:14:00,40.7,28.7,29.80,WSW,256,0.0,1.0,62,0.00,,,0.00,Wunderground v.1.15,2013-02-04 11:14:00,
2013-02-04 05:19:00,40.4,28.8,29.81,WSW,256,0.0,1.0,63,0.00,,,0.00,Wunderground v.1.15,2013-02-04 11:19:00,
2013-02-04 05:24:00,40.4,28.8,29.81,WSW,256,0.0,1.0,63,0.00,,,0.00,Wunderground v.1.15,2013-02-04 11:24:00,
2013-02-04 05:29:00,40.0,28.4,29.81,WSW,256,1.0,1.0,63,0.00,,,0.00,Wunderground v.1.15,2013-02-04 11:29:00,
2013-02-04 05:34:00,39.5,28.3,29.81,WSW,256,0.0,1.0,64,0.00,,,0.00,Wunderground v.1.15,2013-02-04 11:34:00,
2013-02-04 05:39:00,39.2,28.4,29.81,WSW,256,0.0,1.0,65,0.00,,,0.00,Wunderground v.1.15,2013-02-04 11:39:00,
2013-02-04 05:44:00,38.9,28.5,29.81,WSW,256,1.0,1.0,66,0.00,,,0.00,Wunderground v.1.15,2013-02-04 11:44:00,
2013-02-04 05:49:00,38.7,28.7,29.81,WSW,256,0.0,1.0,67,0.00,,,0.00,Wunderground v.1.15,2013-02-04 11:49:00,
2013-02-04 05:54:00,38.6,28.6,29.81,WSW,256,1.0,2.0,67,0.00,,,0.00,Wunderground v.1.15,2013-02-04 11:54:00,
2013-02-04 05:59:00,38.5,28.5,29.81,WSW,256,1.0,2.0,67,0.00,,,0.00,Wunderground v.1.15,2013-02-04 11:59:00,
2013-02-04 06:04:00,38.3,28.3,29.81,WSW,256,0.0,1.0,67,0.00,,,0.00,Wunderground v.1.15,2013-02-04 12:04:00,
2013-02-04 06:09:00,38.0,28.4,29.81,WSW,256,0.0,1.0,68,0.00,,,0.00,Wunderground v.1.15,2013-02-04 12:09:00,
2013-02-04 06:14:00,37.7,28.4,29.81,WSW,256,0.0,0.0,69,0.00,,,0.00,Wunderground v.1.15,2013-02-04 12:14:00,
2013-02-04 06:19:00,37.5,28.6,29.81,WSW,256,0.0,1.0,70,0.00,,,0.00,Wunderground v.1.15,2013-02-04 12:19:00,
2013-02-04 06:24:00,37.3,28.4,29.82,WSW,256,0.0,0.0,70,0.00,,,0.00,Wunderground v.1.15,2013-02-04 12:24:00,
2013-02-04 06:29:00,37.1,28.2,29.82,WSW,256,0.0,1.0,70,0.00,,,0.00,Wunderground v.1.15,2013-02-04 12:29:00,
2013-02-04 06:34:00,36.8,27.9,29.82,WSW,256,0.0,0.0,70,0.00,,,0.00,Wunderground v.1.15,2013-02-04 12:34:00,
2013-02-04 06:39:00,36.4,27.9,29.83,WSW,256,0.0,1.0,71,0.00,,,0.00,Wunderground v.1.15,2013-02-04 12:39:00,
2013-02-04 06:44:00,36.0,27.8,29.83,WSW,256,0.0,2.0,72,0.00,,,0.00,Wunderground v.1.15,2013-02-04 12:44:00,
2013-02-04 06:49:00,35.6,27.8,29.83,WSW,256,0.0,2.0,73,0.00,,,0.00,Wunderground v.1.15,2013-02-04 12:49:00,
2013-02-04 06:54:00,35.5,28.0,29.84,WSW,256,1.0,1.0,74,0.00,,,0.00,Wunderground v.1.15,2013-02-04 12:54:00,
2013-02-04 06:59:00,35.4,27.9,29.84,WSW,256,0.0,1.0,74,0.00,,,0.00,Wunderground v.1.15,2013-02-04 12:59:00,
2013-02-04 07:04:00,35.4,28.3,29.85,West,279,0.0,1.0,75,0.00,,,0.00,Wunderground v.1.15,2013-02-04 13:04:00,
2013-02-04 07:09:00,35.4,28.3,29.85,West,279,0.0,1.0,75,0.00,,,0.00,Wunderground v.1.15,2013-02-04 13:09:00,
2013-02-04 07:14:00,35.5,28.4,29.85,West,279,0.0,1.0,75,0.00,,,0.00,Wunderground v.1.15,2013-02-04 13:14:00,
2013-02-04 07:19:00,35.6,28.5,29.86,West,279,0.0,1.0,75,0.00,,,0.00,Wunderground v.1.15,2013-02-04 13:19:00,
2013-02-04 07:24:00,35.7,28.6,29.86,West,279,0.0,2.0,75,0.00,,,0.00,Wunderground v.1.15,2013-02-04 13:24:00,
2013-02-04 07:29:00,35.9,28.7,29.86,West,280,0.0,2.0,75,0.00,,,0.00,Wunderground v.1.15,2013-02-04 13:29:00,
2013-02-04 07:34:00,36.1,28.9,29.87,West,281,1.0,2.0,75,0.00,,,0.00,Wunderground v.1.15,2013-02-04 13:34:00,
2013-02-04 07:39:00,36.2,28.7,29.87,West,281,1.0,2.0,74,0.00,,,0.00,Wunderground v.1.15,2013-02-04 13:39:00,
2013-02-04 07:44:00,36.4,28.6,29.87,West,281,0.0,1.0,73,0.00,,,0.00,Wunderground v.1.15,2013-02-04 13:44:00,
2013-02-04 07:49:00,36.6,28.8,29.87,WNW,282,1.0,2.0,73,0.00,,,0.00,Wunderground v.1.15,2013-02-04 13:49:00,
2013-02-04 07:54:00,36.7,28.5,29.88,WNW,302,1.0,2.0,72,0.00,,,0.00,Wunderground v.1.15,2013-02-04 13:54:00,
2013-02-04 07:59:00,36.9,28.7,29.89,WNW,303,0.0,3.0,72,0.00,,,0.00,Wunderground v.1.15,2013-02-04 13:59:00,
2013-02-04 08:04:00,37.1,28.9,29.88,WNW,302,1.0,2.0,72,0.00,,,0.00,Wunderground v.1.15,2013-02-04 14:04:00,
2013-02-04 08:09:00,37.6,29.0,29.89,WNW,298,1.0,2.0,71,0.00,,,0.00,Wunderground v.1.15,2013-02-04 14:09:00,
2013-02-04 08:14:00,38.0,29.1,29.89,NNW,328,0.0,3.0,70,0.00,,,0.00,Wunderground v.1.15,2013-02-04 14:14:00,
2013-02-04 08:19:00,38.5,29.6,29.89,NNW,329,0.0,3.0,70,0.00,,,0.00,Wunderground v.1.15,2013-02-04 14:19:00,
2013-02-04 08:24:00,39.0,29.7,29.89,NNW,348,2.0,3.0,69,0.00,,,0.00,Wunderground v.1.15,2013-02-04 14:24:00,
2013-02-04 08:29:00,39.5,29.8,29.89,NNW,333,1.0,4.0,68,0.00,,,0.00,Wunderground v.1.15,2013-02-04 14:29:00,
2013-02-04 08:34:00,40.1,30.0,29.90,SE,135,1.0,5.0,67,0.00,,,0.00,Wunderground v.1.15,2013-02-04 14:34:00,
2013-02-04 08:39:00,40.5,30.0,29.90,NE,47,2.0,5.0,66,0.00,,,0.00,Wunderground v.1.15,2013-02-04 14:39:00,
2013-02-04 08:44:00,40.9,30.4,29.90,NNE,31,1.0,3.0,66,0.00,,,0.00,Wunderground v.1.15,2013-02-04 14:44:00,
2013-02-04 08:49:00,41.3,30.4,29.90,NNE,22,2.0,4.0,65,0.00,,,0.00,Wunderground v.1.15,2013-02-04 14:49:00,
2013-02-04 08:54:00,41.8,30.5,29.91,NE,38,1.0,4.0,64,0.00,,,0.00,Wunderground v.1.15,2013-02-04 14:54:00,
2013-02-04 08:59:00,42.3,30.6,29.91,NE,38,1.0,4.0,63,0.00,,,0.00,Wunderground v.1.15,2013-02-04 14:59:00,
2013-02-04 09:04:00,42.8,30.7,29.91,NE,38,0.0,3.0,62,0.00,,,0.00,Wunderground v.1.15,2013-02-04 15:04:00,
2013-02-04 09:09:00,43.2,30.6,29.91,NNE,32,3.0,4.0,61,0.00,,,0.00,Wunderground v.1.15,2013-02-04 15:09:00,
2013-02-04 09:14:00,43.7,30.7,29.91,NNE,32,3.0,6.0,60,0.00,,,0.00,Wunderground v.1.15,2013-02-04 15:14:00,
2013-02-04 09:19:00,44.0,30.6,29.91,ESE,121,2.0,6.0,59,0.00,,,0.00,Wunderground v.1.15,2013-02-04 15:19:00,
2013-02-04 09:24:00,44.3,30.9,29.91,ENE,72,1.0,5.0,59,0.00,,,0.00,Wunderground v.1.15,2013-02-04 15:24:00,
2013-02-04 09:29:00,44.9,31.0,29.91,NE,42,2.0,5.0,58,0.00,,,0.00,Wunderground v.1.15,2013-02-04 15:29:00,
2013-02-04 09:34:00,45.0,30.7,29.92,NNE,26,4.0,7.0,57,0.00,,,0.00,Wunderground v.1.15,2013-02-04 15:34:00,
2013-02-04 09:39:00,45.0,30.7,29.92,NNE,25,5.0,7.0,57,0.00,,,0.00,Wunderground v.1.15,2013-02-04 15:39:00,
2013-02-04 09:44:00,45.2,30.9,29.91,NNE,31,2.0,5.0,57,0.00,,,0.00,Wunderground v.1.15,2013-02-04 15:44:00,
2013-02-04 09:49:00,45.2,30.9,29.92,NNE,25,2.0,5.0,57,0.00,,,0.00,Wunderground v.1.15,2013-02-04 15:49:00,
2013-02-04 09:54:00,45.4,30.6,29.92,NNE,27,3.0,6.0,56,0.00,,,0.00,Wunderground v.1.15,2013-02-04 15:54:00,
2013-02-04 09:59:00,45.3,30.5,29.92,NE,44,2.0,6.0,56,0.00,,,0.00,Wunderground v.1.15,2013-02-04 15:59:00,
2013-02-04 10:04:00,45.5,31.1,29.92,NNW,347,2.0,4.0,57,0.00,,,0.00,Wunderground v.1.15,2013-02-04 16:04:00,
2013-02-04 10:09:00,46.0,30.7,29.92,NE,42,2.0,6.0,55,0.00,,,0.00,Wunderground v.1.15,2013-02-04 16:09:00,
2013-02-04 10:14:00,45.9,30.6,29.92,SW,221,3.0,7.0,55,0.00,,,0.00,Wunderground v.1.15,2013-02-04 16:14:00,
2013-02-04 10:19:00,45.7,30.9,29.93,NNW,330,3.0,7.0,56,0.00,,,0.00,Wunderground v.1.15,2013-02-04 16:19:00,
2013-02-04 10:24:00,45.8,31.0,29.93,NNE,27,3.0,6.0,56,0.00,,,0.00,Wunderground v.1.15,2013-02-04 16:24:00,
2013-02-04 10:29:00,46.0,31.6,29.94,NNE,19,1.0,6.0,57,0.00,,,0.00,Wunderground v.1.15,2013-02-04 16:29:00,
2013-02-04 10:34:00,46.4,31.1,29.94,NW,304,4.0,5.0,55,0.00,,,0.00,Wunderground v.1.15,2013-02-04 16:34:00,
2013-02-04 10:39:00,46.1,30.8,29.94,NNE,28,6.0,6.0,55,0.00,,,0.00,Wunderground v.1.15,2013-02-04 16:39:00,
2013-02-04 10:44:00,45.6,30.3,29.95,NE,36,5.0,7.0,55,0.00,,,0.00,Wunderground v.1.15,2013-02-04 16:44:00,
2013-02-04 10:49:00,45.7,30.9,29.95,NNW,337,2.0,7.0,56,0.00,,,0.00,Wunderground v.1.15,2013-02-04 16:49:00,
2013-02-04 10:54:00,45.7,30.4,29.95,NNE,13,3.0,6.0,55,0.00,,,0.00,Wunderground v.1.15,2013-02-04 16:54:00,
2013-02-04 10:59:00,45.2,30.0,29.95,NE,34,6.0,6.0,55,0.00,,,0.00,Wunderground v.1.15,2013-02-04 16:59:00,
2013-02-04 11:04:00,44.8,30.0,29.96,NNW,329,2.0,6.0,56,0.00,,,0.00,Wunderground v.1.15,2013-02-04 17:04:00,
2013-02-04 11:09:00,45.1,30.3,29.96,NNW,344,3.0,7.0,56,0.00,,,0.00,Wunderground v.1.15,2013-02-04 17:09:00,
2013-02-04 11:14:00,44.6,29.9,29.96,SW,234,2.0,6.0,56,0.00,,,0.00,Wunderground v.1.15,2013-02-04 17:14:00,
2013-02-04 11:19:00,44.8,30.0,29.96,NE,34,1.0,6.0,56,0.00,,,0.00,Wunderground v.1.15,2013-02-04 17:19:00,
2013-02-04 11:24:00,44.7,30.0,29.96,North,355,2.0,6.0,56,0.00,,,0.00,Wunderground v.1.15,2013-02-04 17:24:00,
2013-02-04 11:29:00,44.4,30.1,29.97,NW,319,3.0,7.0,57,0.00,,,0.00,Wunderground v.1.15,2013-02-04 17:29:00,
2013-02-04 11:34:00,44.6,29.9,29.97,ENE,59,1.0,4.0,56,0.00,,,0.00,Wunderground v.1.15,2013-02-04 17:34:00,
2013-02-04 11:39:00,44.1,28.9,29.97,NE,56,7.0,9.0,55,0.00,,,0.00,Wunderground v.1.15,2013-02-04 17:39:00,
2013-02-04 11:44:00,43.4,29.2,29.97,NNE,17,3.0,8.0,57,0.00,,,0.00,Wunderground v.1.15,2013-02-04 17:44:00,
2013-02-04 11:49:00,44.0,29.7,29.97,NNE,24,6.0,8.0,57,0.00,,,0.00,Wunderground v.1.15,2013-02-04 17:49:00,
2013-02-04 11:54:00,43.9,30.1,29.97,West,274,1.0,8.0,58,0.00,,,0.00,Wunderground v.1.15,2013-02-04 17:54:00,
2013-02-04 11:59:00,43.4,29.6,29.97,NNE,20,3.0,8.0,58,0.00,,,0.00,Wunderground v.1.15,2013-02-04 17:59:00,
2013-02-04 12:04:00,42.8,29.0,29.97,NNE,22,5.0,8.0,58,0.00,,,0.00,Wunderground v.1.15,2013-02-04 18:04:00,
2013-02-04 12:09:00,42.1,27.9,29.97,NE,41,4.0,8.0,57,0.00,,,0.00,Wunderground v.1.15,2013-02-04 18:09:00,
2013-02-04 12:14:00,41.7,28.0,29.97,NNE,25,3.0,12.0,58,0.00,,,0.00,Wunderground v.1.15,2013-02-04 18:14:00,
2013-02-04 12:19:00,41.6,28.3,29.97,NNE,20,2.0,13.0,59,0.00,,,0.00,Wunderground v.1.15,2013-02-04 18:19:00,
2013-02-04 12:24:00,41.9,28.6,29.97,NNE,30,3.0,9.0,59,0.00,,,0.00,Wunderground v.1.15,2013-02-04 18:24:00,
2013-02-04 12:29:00,41.9,28.6,29.97,NNE,29,3.0,9.0,59,0.00,,,0.00,Wunderground v.1.15,2013-02-04 18:29:00,
2013-02-04 12:34:00,41.5,28.2,29.97,SW,216,1.0,7.0,59,0.00,,,0.00,Wunderground v.1.15,2013-02-04 18:34:00,
2013-02-04 12:39:00,41.9,28.6,29.97,NNE,12,4.0,7.0,59,0.00,,,0.00,Wunderground v.1.15,2013-02-04 18:39:00,
2013-02-04 12:44:00,42.0,28.3,29.97,West,277,1.0,5.0,58,0.00,,,0.00,Wunderground v.1.15,2013-02-04 18:44:00,
2013-02-04 12:49:00,41.7,28.0,29.97,SSW,193,2.0,6.0,58,0.00,,,0.00,Wunderground v.1.15,2013-02-04 18:49:00,
2013-02-04 12:54:00,40.9,27.2,29.97,NNW,345,0.0,6.0,58,0.00,,,0.00,Wunderground v.1.15,2013-02-04 18:54:00,
2013-02-04 12:59:00,40.7,27.9,29.97,NNE,22,3.0,8.0,60,0.00,,,0.00,Wunderground v.1.15,2013-02-04 18:59:00,
2013-02-04 13:04:00,40.7,27.5,29.97,NNE,13,1.0,7.0,59,0.00,,,0.00,Wunderground v.1.15,2013-02-04 19:04:00,
2013-02-04 13:09:00,40.6,27.8,29.97,NNE,24,4.0,7.0,60,0.00,,,0.00,Wunderground v.1.15,2013-02-04 19:09:00,
2013-02-04 13:14:00,40.9,27.7,29.97,NNE,24,2.0,4.0,59,0.00,,,0.00,Wunderground v.1.15,2013-02-04 19:14:00,
2013-02-04 13:19:00,40.7,27.5,29.97,SSE,167,2.0,9.0,59,0.00,,,0.00,Wunderground v.1.15,2013-02-04 19:19:00,
2013-02-04 13:24:00,41.1,27.4,29.97,NNW,343,2.0,5.0,58,0.00,,,0.00,Wunderground v.1.15,2013-02-04 19:24:00,
2013-02-04 13:29:00,41.3,27.2,29.97,ENE,60,2.0,6.0,57,0.00,,,0.00,Wunderground v.1.15,2013-02-04 19:29:00,
2013-02-04 13:34:00,40.9,27.2,29.96,NE,44,3.0,8.0,58,0.00,,,0.00,Wunderground v.1.15,2013-02-04 19:34:00,
2013-02-04 13:39:00,41.0,26.9,29.96,NNE,16,2.0,8.0,57,0.00,,,0.00,Wunderground v.1.15,2013-02-04 19:39:00,
2013-02-04 13:44:00,40.6,26.5,29.96,NNE,28,2.0,7.0,57,0.00,,,0.00,Wunderground v.1.15,2013-02-04 19:44:00,
2013-02-04 13:49:00,40.5,26.4,29.96,NE,40,5.0,8.0,57,0.00,,,0.00,Wunderground v.1.15,2013-02-04 19:49:00,
2013-02-04 13:53:00,40.4,26.8,29.96,NNW,336,1.0,4.0,58,0.00,,,0.00,Wunderground v.1.15,2013-02-04 19:53:00,
2013-02-04 13:58:00,40.6,26.5,29.96,NNE,13,2.0,4.0,57,0.00,,,0.00,Wunderground v.1.15,2013-02-04 19:58:00,
2013-02-04 14:03:00,40.6,27.0,29.96,NNE,29,1.0,7.0,58,0.00,,,0.00,Wunderground v.1.15,2013-02-04 20:03:00,
2013-02-04 14:08:00,41.1,27.0,29.95,NNE,26,2.0,7.0,57,0.00,,,0.00,Wunderground v.1.15,2013-02-04 20:08:00,
2013-02-04 14:13:00,41.4,26.9,29.95,NNE,32,1.0,4.0,56,0.00,,,0.00,Wunderground v.1.15,2013-02-04 20:13:00,
2013-02-04 14:18:00,41.4,26.9,29.95,SW,219,2.0,4.0,56,0.00,,,0.00,Wunderground v.1.15,2013-02-04 20:18:00,
2013-02-04 14:23:00,41.5,27.0,29.95,NW,321,2.0,6.0,56,0.00,,,0.00,Wunderground v.1.15,2013-02-04 20:23:00,
2013-02-04 14:28:00,41.9,27.3,29.95,SW,216,0.0,6.0,56,0.00,,,0.00,Wunderground v.1.15,2013-02-04 20:28:00,
2013-02-04 14:33:00,42.0,27.0,29.95,NNE,30,4.0,5.0,55,0.00,,,0.00,Wunderground v.1.15,2013-02-04 20:33:00,
2013-02-04 14:38:00,41.8,26.8,29.95,NW,319,1.0,8.0,55,0.00,,,0.00,Wunderground v.1.15,2013-02-04 20:38:00,
2013-02-04 14:43:00,41.7,26.7,29.95,North,11,0.0,5.0,55,0.00,,,0.00,Wunderground v.1.15,2013-02-04 20:43:00,
2013-02-04 14:48:00,41.8,26.8,29.95,SE,135,2.0,5.0,55,0.00,,,0.00,Wunderground v.1.15,2013-02-04 20:48:00,
2013-02-04 14:53:00,41.6,26.6,29.95,North,355,2.0,6.0,55,0.00,,,0.00,Wunderground v.1.15,2013-02-04 20:53:00,
2013-02-04 14:58:00,41.4,26.9,29.95,WNW,288,1.0,6.0,56,0.00,,,0.00,Wunderground v.1.15,2013-02-04 20:58:00,
2013-02-04 15:03:00,41.6,27.1,29.95,NNW,344,1.0,4.0,56,0.00,,,0.00,Wunderground v.1.15,2013-02-04 21:03:00,
2013-02-04 15:08:00,42.0,27.0,29.96,NNE,21,3.0,6.0,55,0.00,,,0.00,Wunderground v.1.15,2013-02-04 21:08:00,
2013-02-04 15:13:00,42.1,27.1,29.96,WSW,242,0.0,4.0,55,0.00,,,0.00,Wunderground v.1.15,2013-02-04 21:13:00,
2013-02-04 15:18:00,42.0,27.0,29.96,NNE,26,6.0,7.0,55,0.00,,,0.00,Wunderground v.1.15,2013-02-04 21:18:00,
2013-02-04 15:23:00,41.8,26.8,29.96,SW,234,2.0,3.0,55,0.00,,,0.00,Wunderground v.1.15,2013-02-04 21:23:00,
2013-02-04 15:28:00,41.6,27.1,29.96,WSW,246,1.0,3.0,56,0.00,,,0.00,Wunderground v.1.15,2013-02-04 21:28:00,
2013-02-04 15:33:00,41.4,26.9,29.96,NNE,20,1.0,3.0,56,0.00,,,0.00,Wunderground v.1.15,2013-02-04 21:33:00,
2013-02-04 15:38:00,40.9,26.8,29.97,NNE,24,4.0,8.0,57,0.00,,,0.00,Wunderground v.1.15,2013-02-04 21:38:00,
2013-02-04 15:44:00,40.6,27.0,29.97,NW,317,2.0,4.0,58,0.00,,,0.00,Wunderground v.1.15,2013-02-04 21:44:00,
2013-02-04 15:49:00,40.7,27.1,29.97,NNE,13,2.0,4.0,58,0.00,,,0.00,Wunderground v.1.15,2013-02-04 21:49:00,
2013-02-04 15:54:00,40.6,27.0,29.97,West,269,1.0,5.0,58,0.00,,,0.00,Wunderground v.1.15,2013-02-04 21:54:00,
2013-02-04 15:59:00,40.3,26.7,29.97,NW,323,2.0,6.0,58,0.00,,,0.00,Wunderground v.1.15,2013-02-04 21:59:00,
2013-02-04 16:04:00,40.0,26.8,29.96,NW,319,3.0,4.0,59,0.00,,,0.00,Wunderground v.1.15,2013-02-04 22:04:00,
2013-02-04 16:09:00,39.7,26.5,29.96,NNW,346,0.0,5.0,59,0.00,,,0.00,Wunderground v.1.15,2013-02-04 22:09:00,
2013-02-04 16:14:00,39.4,26.7,29.96,NNE,17,1.0,5.0,60,0.00,,,0.00,Wunderground v.1.15,2013-02-04 22:14:00,
2013-02-04 16:19:00,39.1,26.4,29.96,NNE,13,0.0,5.0,60,0.00,,,0.00,Wunderground v.1.15,2013-02-04 22:19:00,
2013-02-04 16:24:00,39.1,26.8,29.97,NNE,13,0.0,4.0,61,0.00,,,0.00,Wunderground v.1.15,2013-02-04 22:24:00,
2013-02-04 16:29:00,39.1,26.8,29.96,NNE,20,1.0,7.0,61,0.00,,,0.00,Wunderground v.1.15,2013-02-04 22:29:00,
2013-02-04 16:34:00,39.1,26.8,29.96,NNE,31,8.0,8.0,61,0.00,,,0.00,Wunderground v.1.15,2013-02-04 22:34:00,
2013-02-04 16:39:00,39.1,26.4,29.97,NNE,31,1.0,8.0,60,0.00,,,0.00,Wunderground v.1.15,2013-02-04 22:39:00,
2013-02-04 16:44:00,39.0,26.7,29.96,NNE,31,2.0,3.0,61,0.00,,,0.00,Wunderground v.1.15,2013-02-04 22:44:00,
2013-02-04 16:49:00,39.1,26.8,29.96,NNE,31,0.0,5.0,61,0.00,,,0.00,Wunderground v.1.15,2013-02-04 22:49:00,
2013-02-04 16:54:00,38.6,26.3,29.95,NNE,31,1.0,4.0,61,0.00,,,0.00,Wunderground v.1.15,2013-02-04 22:54:00,
2013-02-04 16:59:00,38.5,26.6,29.95,NNE,31,0.0,4.0,62,0.00,,,0.00,Wunderground v.1.15,2013-02-04 22:59:00,
2013-02-04 17:04:00,38.6,26.7,29.95,NNE,31,0.0,2.0,62,0.00,,,0.00,Wunderground v.1.15,2013-02-04 23:04:00,
2013-02-04 17:09:00,38.7,26.4,29.96,NNE,31,0.0,2.0,61,0.00,,,0.00,Wunderground v.1.15,2013-02-04 23:09:00,
2013-02-04 17:14:00,38.5,26.6,29.96,NNE,31,2.0,2.0,62,0.00,,,0.00,Wunderground v.1.15,2013-02-04 23:14:00,
2013-02-04 17:19:00,38.4,26.5,29.95,NW,325,1.0,3.0,62,0.00,,,0.00,Wunderground v.1.15,2013-02-04 23:19:00,
2013-02-04 17:24:00,38.2,26.3,29.95,NW,325,1.0,2.0,62,0.00,,,0.00,Wunderground v.1.15,2013-02-04 23:24:00,
2013-02-04 17:29:00,38.0,26.1,29.95,NW,325,0.0,2.0,62,0.00,,,0.00,Wunderground v.1.15,2013-02-04 23:29:00,
2013-02-04 17:34:00,37.6,26.1,29.95,NW,325,1.0,2.0,63,0.00,,,0.00,Wunderground v.1.15,2013-02-04 23:34:00,
2013-02-04 17:39:00,37.3,26.2,29.95,NW,325,1.0,2.0,64,0.00,,,0.00,Wunderground v.1.15,2013-02-04 23:39:00,
2013-02-04 17:44:00,37.0,25.9,29.95,NW,325,0.0,1.0,64,0.00,,,0.00,Wunderground v.1.15,2013-02-04 23:44:00,
2013-02-04 17:49:00,36.8,26.1,29.95,NW,325,0.0,2.0,65,0.00,,,0.00,Wunderground v.1.15,2013-02-04 23:49:00,
2013-02-04 17:54:00,36.6,25.9,29.95,NW,325,0.0,1.0,65,0.00,,,0.00,Wunderground v.1.15,2013-02-04 23:54:00,
2013-02-04 17:59:00,36.4,26.1,29.96,NW,325,0.0,1.0,66,0.00,,,0.00,Wunderground v.1.15,2013-02-04 23:59:00,
2013-02-04 18:04:00,36.2,25.9,29.96,NW,325,0.0,1.0,66,0.00,,,0.00,Wunderground v.1.15,2013-02-05 00:04:00,
2013-02-04 18:09:00,36.1,26.2,29.96,NW,325,0.0,1.0,67,0.00,,,0.00,Wunderground v.1.15,2013-02-05 00:09:00,
2013-02-04 18:14:00,35.9,26.0,29.96,NW,325,0.0,1.0,67,0.00,,,0.00,Wunderground v.1.15,2013-02-05 00:14:00,
2013-02-04 18:19:00,35.7,26.2,29.96,NW,325,0.0,1.0,68,0.00,,,0.00,Wunderground v.1.15,2013-02-05 00:19:00,
2013-02-04 18:24:00,35.5,26.0,29.96,NW,325,1.0,1.0,68,0.00,,,0.00,Wunderground v.1.15,2013-02-05 00:24:00,
2013-02-04 18:29:00,35.3,25.8,29.96,NW,325,0.0,2.0,68,0.00,,,0.00,Wunderground v.1.15,2013-02-05 00:29:00,
2013-02-04 18:34:00,35.0,25.5,29.96,NW,325,0.0,2.0,68,0.00,,,0.00,Wunderground v.1.15,2013-02-05 00:34:00,
2013-02-04 18:39:00,34.7,25.6,29.97,NW,325,1.0,2.0,69,0.00,,,0.00,Wunderground v.1.15,2013-02-05 00:39:00,
2013-02-04 18:44:00,34.3,25.5,29.97,NW,325,1.0,1.0,70,0.00,,,0.00,Wunderground v.1.15,2013-02-05 00:44:00,
2013-02-04 18:49:00,34.1,25.7,29.97,NW,325,0.0,2.0,71,0.00,,,0.00,Wunderground v.1.15,2013-02-05 00:49:00,
2013-02-04 18:54:00,33.8,25.4,29.97,NW,325,1.0,2.0,71,0.00,,,0.00,Wunderground v.1.15,2013-02-05 00:54:00,
2013-02-04 18:59:00,33.6,25.2,29.97,NW,325,0.0,2.0,71,0.00,,,0.00,Wunderground v.1.15,2013-02-05 00:59:00,
2013-02-04 19:04:00,33.4,25.3,29.97,NW,325,0.0,1.0,72,0.00,,,0.00,Wunderground v.1.15,2013-02-05 01:04:00,
2013-02-04 19:09:00,33.2,25.1,29.98,NW,325,0.0,2.0,72,0.00,,,0.00,Wunderground v.1.15,2013-02-05 01:09:00,
2013-02-04 19:14:00,33.0,25.3,29.98,NW,325,0.0,1.0,73,0.00,,,0.00,Wunderground v.1.15,2013-02-05 01:14:00,
2013-02-04 19:19:00,32.8,25.1,29.98,NW,325,0.0,1.0,73,0.00,,,0.00,Wunderground v.1.15,2013-02-05 01:19:00,
2013-02-04 19:24:00,32.5,25.1,29.98,NW,325,0.0,1.0,74,0.00,,,0.00,Wunderground v.1.15,2013-02-05 01:24:00,
2013-02-04 19:29:00,32.3,24.9,29.98,NW,325,0.0,1.0,74,0.00,,,0.00,Wunderground v.1.15,2013-02-05 01:29:00,
2013-02-04 19:34:00,32.2,25.2,29.98,NW,325,0.0,1.0,75,0.00,,,0.00,Wunderground v.1.15,2013-02-05 01:34:00,
2013-02-04 19:39:00,32.1,25.1,29.98,NW,325,0.0,2.0,75,0.00,,,0.00,Wunderground v.1.15,2013-02-05 01:39:00,
2013-02-04 19:44:00,31.9,24.9,29.98,NW,325,1.0,2.0,75,0.00,,,0.00,Wunderground v.1.15,2013-02-05 01:44:00,
2013-02-04 19:49:00,31.7,25.0,29.99,NW,325,0.0,2.0,76,0.00,,,0.00,Wunderground v.1.15,2013-02-05 01:49:00,
2013-02-04 19:54:00,31.5,24.8,29.99,NW,325,2.0,3.0,76,0.00,,,0.00,Wunderground v.1.15,2013-02-05 01:54:00,
2013-02-04 19:59:00,31.4,24.7,29.99,NW,325,0.0,3.0,76,0.00,,,0.00,Wunderground v.1.15,2013-02-05 01:59:00,
2013-02-04 20:04:00,31.2,24.8,29.99,NW,325,1.0,2.0,77,0.00,,,0.00,Wunderground v.1.15,2013-02-05 02:04:00,
2013-02-04 20:09:00,31.0,24.6,29.99,NW,325,0.0,2.0,77,0.00,,,0.00,Wunderground v.1.15,2013-02-05 02:09:00,
2013-02-04 20:14:00,30.9,24.5,29.99,NW,325,0.0,1.0,77,0.00,,,0.00,Wunderground v.1.15,2013-02-05 02:14:00,
2013-02-04 20:19:00,30.8,24.7,29.99,NW,325,0.0,1.0,78,0.00,,,0.00,Wunderground v.1.15,2013-02-05 02:19:00,
2013-02-04 20:24:00,30.6,24.6,29.99,NW,325,0.0,1.0,78,0.00,,,0.00,Wunderground v.1.15,2013-02-05 02:24:00,
2013-02-04 20:29:00,30.6,24.6,29.99,NW,325,0.0,1.0,78,0.00,,,0.00,Wunderground v.1.15,2013-02-05 02:29:00,
2013-02-04 20:34:00,30.4,24.4,29.99,NW,325,0.0,2.0,78,0.00,,,0.00,Wunderground v.1.15,2013-02-05 02:34:00,
2013-02-04 20:39:00,30.4,24.4,29.99,NW,325,0.0,2.0,78,0.00,,,0.00,Wunderground v.1.15,2013-02-05 02:39:00,
2013-02-04 20:44:00,30.3,24.3,29.98,NW,325,0.0,1.0,78,0.00,,,0.00,Wunderground v.1.15,2013-02-05 02:44:00,
2013-02-04 20:49:00,30.1,24.4,29.99,NW,325,0.0,1.0,79,0.00,,,0.00,Wunderground v.1.15,2013-02-05 02:49:00,
2013-02-04 20:54:00,30.0,24.3,29.99,NW,325,0.0,1.0,79,0.00,,,0.00,Wunderground v.1.15,2013-02-05 02:54:00,
2013-02-04 20:59:00,29.9,24.2,29.99,NW,325,0.0,1.0,79,0.00,,,0.00,Wunderground v.1.15,2013-02-05 02:59:00,
2013-02-04 21:04:00,29.8,24.4,29.98,NW,325,0.0,1.0,80,0.00,,,0.00,Wunderground v.1.15,2013-02-05 03:04:00,
2013-02-04 21:09:00,29.7,24.3,29.98,NW,325,0.0,1.0,80,0.00,,,0.00,Wunderground v.1.15,2013-02-05 03:09:00,
2013-02-04 21:14:00,29.6,24.2,29.99,NW,325,0.0,1.0,80,0.00,,,0.00,Wunderground v.1.15,2013-02-05 03:14:00,
2013-02-04 21:19:00,29.5,24.1,29.99,NW,325,1.0,1.0,80,0.00,,,0.00,Wunderground v.1.15,2013-02-05 03:19:00,
2013-02-04 21:24:00,29.4,24.3,30.00,NW,325,0.0,1.0,81,0.00,,,0.00,Wunderground v.1.15,2013-02-05 03:24:00,
2013-02-04 21:29:00,29.4,24.3,30.00,NW,325,0.0,1.0,81,0.00,,,0.00,Wunderground v.1.15,2013-02-05 03:29:00,
2013-02-04 21:34:00,29.4,24.0,30.00,NW,325,0.0,2.0,80,0.00,,,0.00,Wunderground v.1.15,2013-02-05 03:34:00,
2013-02-04 21:39:00,29.3,23.9,30.00,NW,325,0.0,2.0,80,0.00,,,0.00,Wunderground v.1.15,2013-02-05 03:39:00,
2013-02-04 21:44:00,29.2,24.1,30.01,NW,325,1.0,1.0,81,0.00,,,0.00,Wunderground v.1.15,2013-02-05 03:44:00,
2013-02-04 21:49:00,29.1,24.0,30.01,NW,325,1.0,1.0,81,0.00,,,0.00,Wunderground v.1.15,2013-02-05 03:49:00,
2013-02-04 21:54:00,28.9,23.8,30.01,NW,325,0.0,1.0,81,0.00,,,0.00,Wunderground v.1.15,2013-02-05 03:54:00,
2013-02-04 21:59:00,28.8,24.0,30.01,NW,325,0.0,1.0,82,0.00,,,0.00,Wunderground v.1.15,2013-02-05 03:59:00,
2013-02-04 22:04:00,28.7,23.9,30.00,NW,325,0.0,0.0,82,0.00,,,0.00,Wunderground v.1.15,2013-02-05 04:04:00,
2013-02-04 22:09:00,28.5,23.7,30.00,NW,325,0.0,1.0,82,0.00,,,0.00,Wunderground v.1.15,2013-02-05 04:09:00,
2013-02-04 22:14:00,28.4,23.6,30.00,NW,325,0.0,1.0,82,0.00,,,0.00,Wunderground v.1.15,2013-02-05 04:14:00,
2013-02-04 22:19:00,28.3,23.5,30.00,NW,325,0.0,1.0,82,0.00,,,0.00,Wunderground v.1.15,2013-02-05 04:19:00,
2013-02-04 22:24:00,28.1,23.6,30.00,NW,325,0.0,1.0,83,0.00,,,0.00,Wunderground v.1.15,2013-02-05 04:24:00,
2013-02-04 22:29:00,28.1,23.6,29.99,NW,325,0.0,1.0,83,0.00,,,0.00,Wunderground v.1.15,2013-02-05 04:29:00,
2013-02-04 22:34:00,28.2,23.7,29.99,NW,325,0.0,1.0,83,0.00,,,0.00,Wunderground v.1.15,2013-02-05 04:34:00,
2013-02-04 22:39:00,28.1,23.6,29.99,NW,325,0.0,1.0,83,0.00,,,0.00,Wunderground v.1.15,2013-02-05 04:39:00,
2013-02-04 22:44:00,27.9,23.4,29.98,NW,325,0.0,1.0,83,0.00,,,0.00,Wunderground v.1.15,2013-02-05 04:44:00,
2013-02-04 22:49:00,27.9,23.4,29.98,NW,325,0.0,1.0,83,0.00,,,0.00,Wunderground v.1.15,2013-02-05 04:49:00,
2013-02-04 22:54:00,27.8,23.6,29.97,NW,325,1.0,1.0,84,0.00,,,0.00,Wunderground v.1.15,2013-02-05 04:54:00,
2013-02-04 22:59:00,27.8,23.6,29.97,NW,325,0.0,1.0,84,0.00,,,0.00,Wunderground v.1.15,2013-02-05 04:59:00,
2013-02-04 23:00:00,27.8,23.6,29.97,NW,325,0.0,1.0,84,0.00,,,0.00,Wunderground v.1.15,2013-02-05 05:00:00,
2013-02-04 23:05:00,27.8,23.6,29.96,NW,325,1.0,2.0,84,0.00,,,0.00,Wunderground v.1.15,2013-02-05 05:05:00,
2013-02-04 23:10:00,27.8,23.6,29.95,NW,325,1.0,2.0,84,0.00,,,0.00,Wunderground v.1.15,2013-02-05 05:10:00,
2013-02-04 23:15:00,27.8,23.6,29.96,NW,325,0.0,2.0,84,0.00,,,0.00,Wunderground v.1.15,2013-02-05 05:15:00,
2013-02-04 23:21:00,27.7,23.5,29.96,NW,325,1.0,1.0,84,0.00,,,0.00,Wunderground v.1.15,2013-02-05 05:21:00,
2013-02-04 23:26:00,27.7,23.5,29.95,NW,325,1.0,2.0,84,0.00,,,0.00,Wunderground v.1.15,2013-02-05 05:26:00,
2013-02-04 23:31:00,27.7,23.5,29.95,NW,325,0.0,1.0,84,0.00,,,0.00,Wunderground v.1.15,2013-02-05 05:31:00,
2013-02-04 23:36:00,27.8,23.6,29.95,NW,325,0.0,2.0,84,0.00,,,0.00,Wunderground v.1.15,2013-02-05 05:36:00,
2013-02-04 23:41:00,27.8,23.6,29.95,NW,325,0.0,1.0,84,0.00,,,0.00,Wunderground v.1.15,2013-02-05 05:41:00,
2013-02-04 23:46:00,27.8,23.6,29.95,NW,325,1.0,1.0,84,0.00,,,0.00,Wunderground v.1.15,2013-02-05 05:46:00,
2013-02-04 23:51:00,27.8,23.6,29.95,NW,325,1.0,2.0,84,0.00,,,0.00,Wunderground v.1.15,2013-02-05 05:51:00,
2013-02-04 23:56:00,27.9,23.7,29.95,NW,325,0.0,2.0,84,0.00,,,0.00,Wunderground v.1.15,2013-02-05 05:56:00,